KJ4KNU Weather Reports


time (UTC)temp
C
wind
direction
speed
KPH
gust
KPH
rain 1hr
cm
rain 24hr
cm
rain mn
cm
humidity
%
barometer
mb
20260906113503 18 0 0.0 0.0 0.00 0.00 0.00 100 1017.6
20260906113003 17 0 0.0 0.0 0.00 0.00 0.00 100 1017.7
20260906112002 17 0 0.0 0.0 0.00 0.00 0.00 100 1017.6
20260906111503 17 0 0.0 0.0 0.00 0.00 0.00 100 1017.6
20260906110502 17 0 0.0 0.0 0.00 0.00 0.00 100 1017.4
20260906105503 17 0 0.0 0.0 0.00 0.00 0.00 99 1017.3
20260906105003 17 0 0.0 0.0 0.00 0.00 0.00 99 1017.2
20260906104003 16 0 0.0 0.0 0.00 0.00 0.00 100 1017.2
20260906103503 16 0 0.0 0.0 0.00 0.00 0.00 99 1017.2
20260906103003 16 0 0.0 0.0 0.00 0.00 0.00 99 1017.3
20260906102503 16 0 0.0 0.0 0.00 0.00 0.00 99 1017.4
20260906102003 16 0 0.0 0.0 0.00 0.00 0.00 100 1017.4
20260906101503 16 0 0.0 0.0 0.00 0.00 0.00 100 1017.3
20260906101002 16 0 0.0 0.0 0.00 0.00 0.00 100 1017.3
20260906100503 16 0 0.0 0.0 0.00 0.00 0.00 100 1017.2
20260906100003 16 0 0.0 0.0 0.00 0.00 0.00 100 1017.2
20260906095503 16 0 0.0 0.0 0.00 0.00 0.00 99 1017.3
20260906095003 15 0 0.0 0.0 0.00 0.00 0.00 99 1017.2
20260906094003 15 0 0.0 0.0 0.00 0.00 0.00 99 1017.1
20260906093003 15 0 0.0 0.0 0.00 0.00 0.00 99 1017.0
20260906092503 15 0 0.0 0.0 0.00 0.00 0.00 100 1017.0
20260906092003 15 0 0.0 0.0 0.00 0.00 0.00 100 1017.0
20260906091503 15 0 0.0 0.0 0.00 0.00 0.00 99 1017.0
20260906091003 15 0 0.0 0.0 0.00 0.00 0.00 99 1016.9
20260906090502 15 0 0.0 0.0 0.00 0.00 0.00 99 1016.9
20260906090003 15 0 0.0 0.0 0.00 0.00 0.00 99 1016.8
20260906085503 14 0 0.0 0.0 0.00 0.00 0.00 99 1016.8
20260906085003 14 0 0.0 0.0 0.00 0.00 0.00 99 1016.7
20260906084503 14 0 0.0 0.0 0.00 0.00 0.00 100 1016.7
20260906084003 14 0 0.0 0.0 0.00 0.00 0.00 99 1016.6
20260906083503 14 0 0.0 0.0 0.00 0.00 0.00 99 1016.6
20260906083003 13 0 0.0 0.0 0.00 0.00 0.00 100 1016.7
20260906082502 13 0 0.0 0.0 0.00 0.00 0.00 97 1016.6
20260906081503 13 0 0.0 0.0 0.00 0.00 0.00 100 1016.5
20260906081003 14 0 0.0 0.0 0.00 0.00 0.00 97 1016.5
20260906080503 14 0 0.0 0.0 0.00 0.00 0.00 100 1016.4
20260906080003 15 0 0.0 0.0 0.00 0.00 0.00 100 1016.5
20260906075503 15 0 0.0 0.0 0.00 0.00 0.00 100 1016.4
20260906075003 15 0 0.0 0.0 0.00 0.00 0.00 99 1016.4
20260906073003 15 0 0.0 0.0 0.00 0.00 0.00 97 1016.4
20260906072503 15 0 0.0 0.0 0.00 0.00 0.00 100 1016.5
20260906065502 15 0 0.0 0.0 0.00 0.00 0.00 100 1016.8
20260906065003 15 0 0.0 0.0 0.00 0.00 0.00 100 1016.8
20260906064003 15 0 0.0 0.0 0.00 0.00 0.00 97 1016.9
20260906063503 15 0 0.0 0.0 0.00 0.00 0.00 96 1017.0
20260906063003 15 0 0.0 0.0 0.00 0.00 0.00 97 1017.0
20260906062503 15 0 0.0 0.0 0.00 0.00 0.00 97 1016.9
20260906062002 15 0 0.0 0.0 0.00 0.00 0.00 97 1017.1
20260906061503 15 0 0.0 0.0 0.00 0.00 0.00 97 1017.1
20260906061003 15 0 0.0 0.0 0.00 0.00 0.00 96 1017.1
20260906060003 16 0 0.0 0.0 0.00 0.00 0.00 97 1017.1
20260906055503 15 0 0.0 0.0 0.00 0.00 0.00 97 1017.1
20260906055003 15 0 0.0 0.0 0.00 0.00 0.00 97 1017.1
20260906054503 15 0 0.0 0.0 0.00 0.00 0.00 97 1017.1
20260906054003 15 0 0.0 0.0 0.00 0.00 0.00 95 1017.1
20260906053503 16 0 0.0 0.0 0.00 0.00 0.00 95 1017.1
20260906053003 16 0 0.0 0.0 0.00 0.00 0.00 97 1017.2
20260906052503 16 0 0.0 0.0 0.00 0.00 0.00 96 1017.2
20260906052003 16 0 0.0 0.0 0.00 0.00 0.00 96 1017.2
20260906051003 16 0 0.0 0.0 0.00 0.00 0.00 95 1017.2
20260906050503 16 0 0.0 0.0 0.00 0.00 0.00 96 1017.2
20260906050003 16 0 0.0 0.0 0.00 0.00 0.00 97 1017.1
20260906045503 16 0 0.0 0.0 0.00 0.00 0.00 97 1017.1
20260906045003 16 0 0.0 0.0 0.00 0.00 0.00 96 1017.2
20260906044504 16 0 0.0 0.0 0.00 0.00 0.00 96 1017.2
20260906044003 17 0 0.0 0.0 0.00 0.00 0.00 96 1017.2
20260906043503 17 0 0.0 0.0 0.00 0.00 0.00 97 1017.2
20260906043003 16 0 0.0 0.0 0.00 0.00 0.00 97 1017.2
20260906042503 16 0 0.0 0.0 0.00 0.00 0.00 96 1017.3
20260906041503 16 0 0.0 0.0 0.00 0.00 0.00 95 1017.3
20260906041003 16 0 0.0 0.0 0.00 0.00 0.00 95 1017.4
20260906040008 16 0 0.0 0.0 0.00 0.00 0.00 95 1017.2
20260906035503 16 0 0.0 0.0 0.00 0.00 0.00 95 1017.2
20260906035003 16 0 0.0 0.0 0.00 0.00 0.00 94 1017.2
20260906034503 17 0 0.0 0.0 0.00 0.00 0.00 95 1017.4
20260906034003 17 0 0.0 0.0 0.00 0.00 0.00 96 1017.6
20260906033503 17 0 0.0 0.0 0.00 0.00 0.00 96 1017.7
20260906033003 16 0 0.0 0.0 0.00 0.00 0.00 95 1017.5
20260906032003 17 0 0.0 0.0 0.00 0.00 0.00 94 1017.6
20260906031503 17 0 0.0 0.0 0.00 0.00 0.00 93 1017.6
20260906031003 17 0 0.0 0.0 0.00 0.00 0.00 92 1017.6
20260906030503 17 0 0.0 0.0 0.00 0.00 0.00 93 1017.7
20260906030004 17 0 0.0 0.0 0.00 0.00 0.00 93 1017.6
20260906025003 17 0 0.0 0.0 0.00 0.00 0.00 96 1017.5
20260906024503 17 0 0.0 0.0 0.00 0.00 0.00 95 1017.6
20260906024002 17 0 0.0 0.0 0.00 0.00 0.00 94 1017.6
20260906023503 17 0 0.0 0.0 0.00 0.00 0.00 93 1017.5
20260906023003 17 0 0.0 0.0 0.00 0.00 0.00 93 1017.4
20260906022503 17 0 0.0 0.0 0.00 0.00 0.00 94 1017.4
20260906022003 17 0 0.0 0.0 0.00 0.00 0.00 93 1017.3
20260906021003 17 0 0.0 0.0 0.00 0.00 0.00 93 1017.4
20260906020503 17 0 0.0 0.0 0.00 0.00 0.00 92 1017.3
20260906020003 18 0 0.0 0.0 0.00 0.00 0.00 91 1017.4
20260906015503 18 0 0.0 0.0 0.00 0.00 0.00 92 1017.2
20260906015003 18 0 0.0 3.2 0.00 0.00 0.00 91 1017.1
20260906014503 18 0 0.0 4.8 0.00 0.00 0.00 90 1017.1
20260906014003 18 137 1.6 4.8 0.00 0.00 0.00 90 1017.1
20260906013503 18 137 0.0 4.8 0.00 0.00 0.00 90 1017.1
20260906013004 18 138 4.8 4.8 0.00 0.00 0.00 91 1017.1
20260906012503 18 44 1.6 4.8 0.00 0.00 0.00 90 1017.1
20260906012003 18 35 3.2 4.8 0.00 0.00 0.00 90 1017.0
20260906011503 19 0 0.0 0.0 0.00 0.00 0.00 88 1017.0
20260906011003 19 0 0.0 3.2 0.00 0.00 0.00 88 1016.9
20260906010503 19 0 0.0 3.2 0.00 0.00 0.00 86 1016.9
20260906010004 20 35 1.6 3.2 0.00 0.00 0.00 87 1016.8
20260906005503 20 35 0.0 1.6 0.00 0.00 0.00 87 1016.8
20260906005003 20 0 0.0 0.0 0.00 0.00 0.00 87 1016.9
20260906004504 20 0 0.0 0.0 0.00 0.00 0.00 86 1016.9
20260906003503 20 0 0.0 3.2 0.00 0.00 0.00 84 1016.7
20260906003003 21 0 0.0 3.2 0.00 0.00 0.00 83 1016.7
20260906002503 21 34 0.0 1.6 0.00 0.00 0.00 83 1016.7
20260906002003 21 35 1.6 1.6 0.00 0.00 0.00 82 1016.8
20260906001503 21 0 0.0 1.6 0.00 0.00 0.00 81 1016.7
20260906001003 22 0 0.0 3.2 0.00 0.00 0.00 80 1016.5
20260906000503 22 34 1.6 3.2 0.00 0.00 0.00 79 1016.4
20260906000004 22 35 1.6 4.8 0.00 0.00 0.00 78 1016.4
20260905235504 22 34 1.6 9.7 0.00 0.00 0.00 76 1016.3
20260905235003 23 30 6.4 9.7 0.00 0.00 0.00 76 1016.3
20260905234503 23 6 4.8 11.3 0.00 0.00 0.00 74 1016.3
20260905233504 23 13 9.7 25.7 0.00 0.00 0.00 72 1016.2
20260905233004 23 11 8.0 25.7 0.00 0.00 0.00 72 1016.2
20260905232503 23 357 9.7 19.3 0.00 0.00 0.00 71 1016.3
20260905232003 24 347 4.8 8.0 0.00 0.00 0.00 71 1016.3
20260905231503 24 347 1.6 11.3 0.00 0.00 0.00 70 1016.3
20260905231003 24 1 4.8 16.1 0.00 0.00 0.00 69 1016.4
20260905230503 25 1 6.4 16.1 0.00 0.00 0.00 68 1016.3
20260905230004 25 1 6.4 24.1 0.00 0.00 0.00 68 1016.3
20260905225503 25 354 14.5 24.1 0.00 0.00 0.00 66 1016.3
20260905225004 25 339 4.8 14.5 0.00 0.00 0.00 67 1016.3
20260905224504 26 323 6.4 14.5 0.00 0.00 0.00 66 1016.4
20260905224004 26 309 8.0 14.5 0.00 0.00 0.00 66 1016.3
20260905223503 26 334 3.2 11.3 0.00 0.00 0.00 66 1016.3
20260905223003 26 334 1.6 12.9 0.00 0.00 0.00 68 1016.3
20260905222503 27 9 8.0 12.9 0.00 0.00 0.00 64 1016.3
20260905222003 27 350 3.2 16.1 0.00 0.00 0.00 64 1016.3
20260905221003 27 359 6.4 11.3 0.00 0.00 0.00 63 1016.2
20260905220503 27 349 6.4 14.5 0.00 0.00 0.00 64 1016.2
20260905220004 27 351 8.0 14.5 0.00 0.00 0.00 62 1016.2
20260905215003 27 19 6.4 14.5 0.00 0.00 0.00 61 1016.0
20260905214003 27 36 9.7 12.9 0.00 0.00 0.00 62 1016.0
20260905213503 27 12 6.4 16.1 0.00 0.00 0.00 64 1016.0
20260905213003 27 21 8.0 16.1 0.00 0.00 0.00 64 1016.0
20260905212503 27 331 9.7 16.1 0.00 0.00 0.00 62 1015.9
20260905212003 27 15 8.0 16.1 0.00 0.00 0.00 65 1015.8
20260905211503 27 14 4.8 9.7 0.00 0.00 0.00 66 1015.9
20260905211003 27 4 6.4 12.9 0.00 0.00 0.00 64 1015.9
20260905210503 27 23 6.4 14.5 0.00 0.00 0.00 64 1015.9
20260905210004 27 344 3.2 19.3 0.00 0.00 0.00 66 1015.8
20260905205503 27 8 8.0 19.3 0.00 0.00 0.00 64 1015.9
20260905205003 27 9 11.3 19.3 0.00 0.00 0.00 65 1015.8
20260905204504 27 44 6.4 14.5 0.00 0.00 0.00 63 1015.8
20260905204003 27 4 4.8 19.3 0.00 0.00 0.00 66 1015.9
20260905203503 27 351 8.0 19.3 0.00 0.00 0.00 64 1015.8
20260905203003 27 19 9.7 22.5 0.00 0.00 0.00 63 1015.8
20260905202504 27 9 9.7 22.5 0.00 0.00 0.00 66 1015.8
20260905202003 27 323 9.7 20.9 0.00 0.00 0.00 61 1015.9
20260905201504 27 297 12.9 24.1 0.00 0.00 0.00 62 1015.7
20260905201003 27 327 20.9 24.1 0.00 0.00 0.00 61 1015.7
20260905200503 27 357 9.7 19.3 0.00 0.00 0.00 65 1015.7
20260905200004 28 340 8.0 20.9 0.00 0.00 0.00 64 1015.5
20260905195502 28 19 9.7 20.9 0.00 0.00 0.00 65 1015.6
20260905195004 27 351 8.0 19.3 0.00 0.00 0.00 68 1015.6
20260905194503 27 338 9.7 19.3 0.00 0.00 0.00 65 1015.8
20260905193503 27 332 9.7 22.5 0.00 0.00 0.00 67 1015.6
20260905193004 27 312 16.1 24.1 0.00 0.00 0.00 65 1015.7
20260905192503 27 343 11.3 24.1 0.00 0.00 0.00 67 1015.6
20260905192003 27 357 12.9 29.0 0.00 0.00 0.00 69 1015.7
20260905191504 26 326 11.3 29.0 0.00 0.00 0.00 69 1015.8
20260905191003 26 331 17.7 27.4 0.00 0.00 0.00 70 1015.9
20260905190503 26 319 12.9 27.4 0.00 0.00 0.00 71 1016.0
20260905185003 25 335 6.4 22.5 0.00 0.00 0.00 78 1016.5
20260905184503 26 310 14.5 24.1 0.00 0.00 0.00 75 1016.7
20260905184003 26 328 16.1 25.7 0.00 0.00 0.00 74 1016.7
20260905183503 26 300 14.5 25.7 0.00 0.00 0.00 75 1016.8
20260905183004 26 2 14.5 27.4 0.00 0.00 0.00 77 1016.7
20260905182503 25 271 4.8 27.4 0.00 0.00 0.00 78 1016.7
20260905182003 25 321 11.3 27.4 0.00 0.00 0.00 79 1016.9
20260905181504 25 284 9.7 37.0 0.00 0.00 0.00 79 1016.8
20260905181003 24 268 12.9 37.0 0.00 0.00 0.00 78 1016.7
20260905180504 24 263 19.3 32.2 0.00 0.00 0.00 79 1016.7
20260905180004 24 265 14.5 25.7 0.00 0.00 0.00 78 1016.8
20260905175503 24 261 8.0 24.1 0.00 0.00 0.00 79 1017.0
20260905175003 25 262 12.9 24.1 0.00 0.00 0.00 79 1017.0
20260905174503 25 275 16.1 25.7 0.00 0.00 0.00 79 1017.1
20260905172503 25 225 14.5 22.5 0.00 0.00 0.00 77 1017.3
20260905172003 25 251 16.1 22.5 0.00 0.00 0.00 77 1017.4
20260905171503 25 266 16.1 22.5 0.00 0.00 0.00 75 1017.4
20260905171003 25 250 12.9 24.1 0.00 0.00 0.00 76 1017.5
20260905170004 25 245 6.4 27.4 0.00 0.00 0.00 74 1017.7
20260905165503 26 268 19.3 27.4 0.00 0.00 0.00 71 1017.9
20260905165003 26 268 17.7 25.7 0.00 0.00 0.00 72 1017.8
20260905164503 26 297 17.7 25.7 0.00 0.00 0.00 70 1017.9
20260905164003 26 324 9.7 24.1 0.00 0.00 0.00 69 1017.8
20260905163503 26 342 11.3 16.1 0.00 0.00 0.00 72 1017.9
20260905163003 26 334 4.8 24.1 0.00 0.00 0.00 72 1018.0
20260905162502 26 293 8.0 24.1 0.00 0.00 0.00 73 1018.1
20260905162004 26 278 11.3 16.1 0.00 0.00 0.00 75 1018.2
20260905161504 26 9 9.7 16.1 0.00 0.00 0.00 76 1018.5
20260905160503 26 16 4.8 19.3 0.00 0.00 0.00 75 1018.5
20260905160003 25 304 6.4 32.2 0.00 0.00 0.00 76 1018.5
20260905155003 25 5 6.4 16.1 0.00 0.00 0.00 77 1018.7
20260905154504 25 335 4.8 22.5 0.00 0.00 0.00 77 1018.6
20260905154003 25 352 14.5 24.1 0.00 0.00 0.00 79 1018.7
20260905153503 25 327 12.9 24.1 0.00 0.00 0.00 82 1018.8
20260905153003 25 21 12.9 22.5 0.00 0.00 0.00 82 1018.8
20260905152503 25 345 9.7 27.4 0.00 0.00 0.00 81 1018.8
20260905152003 25 321 14.5 32.2 0.00 0.00 0.00 79 1018.9
20260905151003 26 354 12.9 27.4 0.00 0.00 0.00 78 1018.7
20260905150503 26 17 6.4 16.1 0.00 0.00 0.00 79 1018.6
20260905150003 26 320 9.7 19.3 0.00 0.00 0.00 78 1018.6
20260905145504 26 333 8.0 20.9 0.00 0.00 0.00 77 1018.5
20260905145003 26 21 9.7 20.9 0.00 0.00 0.00 77 1018.4
20260905144503 26 327 6.4 20.9 0.00 0.00 0.00 78 1018.3
20260905144003 26 329 11.3 20.9 0.00 0.00 0.00 76 1018.3
20260905143503 26 332 14.5 20.9 0.00 0.00 0.00 76 1018.4
20260905143004 26 357 8.0 19.3 0.00 0.00 0.00 78 1018.5
20260905142503 26 4 6.4 19.3 0.00 0.00 0.00 76 1018.6
20260905142003 26 333 8.0 19.3 0.00 0.00 0.00 77 1018.5
20260905141504 26 353 6.4 19.3 0.00 0.00 0.00 77 1018.6
20260905141003 26 342 8.0 27.4 0.00 0.00 0.00 78 1018.5
20260905135503 26 297 14.5 29.0 0.00 0.00 0.00 79 1018.5
20260905135003 25 252 6.4 20.9 0.00 0.00 0.00 81 1018.3
20260905134504 25 248 16.1 20.9 0.00 0.00 0.00 81 1018.4
20260905134003 25 232 3.2 20.9 0.00 0.00 0.00 83 1018.3
20260905133503 25 240 9.7 22.5 0.00 0.00 0.00 82 1018.3
20260905133004 25 227 11.3 25.7 0.00 0.00 0.00 82 1018.2
20260905132503 25 226 14.5 27.4 0.00 0.00 0.00 82 1018.1
20260905132003 25 263 16.1 27.4 0.00 0.00 0.00 82 1018.0
20260905131504 25 256 11.3 19.3 0.00 0.00 0.00 84 1018.2
20260905131003 24 202 4.8 16.1 0.00 0.00 0.00 83 1018.1
20260905130504 24 190 3.2 16.1 0.00 0.00 0.00 84 1018.1
20260905130004 24 145 4.8 16.1 0.00 0.00 0.00 83 1018.0
20260905125504 24 202 9.7 14.5 0.00 0.00 0.00 85 1018.1
20260905125003 24 230 4.8 22.5 0.00 0.00 0.00 84 1018.0
20260905124504 23 281 9.7 22.5 0.00 0.00 0.00 85 1018.0
20260905123504 23 237 4.8 19.3 0.00 0.00 0.00 87 1018.0
20260905123004 22 225 1.6 12.9 0.00 0.00 0.00 86 1018.1
20260905122503 22 194 3.2 19.3 0.00 0.00 0.00 87 1018.2
20260905122003 22 191 6.4 19.3 0.00 0.00 0.00 87 1018.2
20260905121503 22 177 9.7 19.3 0.00 0.00 0.00 88 1018.2
20260905121003 21 171 6.4 19.3 0.00 0.00 0.00 89 1018.0
20260905120503 21 173 8.0 19.3 0.00 0.00 0.00 89 1018.1
20260905120004 21 178 8.0 16.1 0.00 0.00 0.00 89 1018.0
20260905115503 21 171 9.7 16.1 0.00 0.00 0.00 89 1017.9
20260905115003 21 167 11.3 16.1 0.00 0.00 0.00 90 1017.8
20260905114504 21 158 9.7 14.5 0.00 0.00 0.00 90 1017.8
20260905114003 21 225 3.2 12.9 0.00 0.00 0.00 90 1017.8